TimeEDT,TemperatureF,Dew PointF,Humidity,Sea Level PressureIn,VisibilityMPH,Wind Direction,Wind SpeedMPH,Gust SpeedMPH,PrecipitationIn,Events,Conditions,WindDirDegrees,DateUTC
12:51 AM,54.0,39.0,57,30.14,10.0,NNW,6.9,-,N/A,,Partly Cloudy,330,2013-06-05 04:51:00
1:51 AM,52.0,39.0,61,30.15,10.0,WNW,4.6,-,N/A,,Mostly Cloudy,300,2013-06-05 05:51:00
2:51 AM,54.0,39.9,59,30.15,10.0,Calm,Calm,-,N/A,,Mostly Cloudy,0,2013-06-05 06:51:00
3:51 AM,53.1,41.0,64,30.16,10.0,West,3.5,-,N/A,,Mostly Cloudy,270,2013-06-05 07:51:00
4:51 AM,51.1,41.0,68,30.16,10.0,Calm,Calm,-,N/A,,Mostly Cloudy,0,2013-06-05 08:51:00
5:51 AM,48.0,42.1,80,30.17,10.0,Calm,Calm,-,N/A,,Mostly Cloudy,0,2013-06-05 09:51:00
6:51 AM,53.1,45.0,74,30.20,10.0,Calm,Calm,-,N/A,,Scattered Clouds,0,2013-06-05 10:51:00
7:51 AM,57.9,43.0,58,30.21,10.0,Calm,Calm,-,N/A,,Scattered Clouds,0,2013-06-05 11:51:00
8:51 AM,62.1,43.0,50,30.22,10.0,West,3.5,-,N/A,,Scattered Clouds,280,2013-06-05 12:51:00
9:51 AM,64.0,43.0,46,30.21,10.0,Calm,Calm,-,N/A,,Scattered Clouds,0,2013-06-05 13:51:00
10:51 AM,64.9,41.0,42,30.20,10.0,Calm,Calm,-,N/A,,Scattered Clouds,0,2013-06-05 14:51:00
11:51 AM,69.1,44.1,40,30.19,10.0,Variable,3.5,-,N/A,,Scattered Clouds,0,2013-06-05 15:51:00
12:51 PM,72.0,44.1,37,30.18,10.0,WNW,5.8,-,N/A,,Scattered Clouds,290,2013-06-05 16:51:00
1:51 PM,72.0,44.1,37,30.15,10.0,Variable,4.6,-,N/A,,Scattered Clouds,0,2013-06-05 17:51:00
2:51 PM,73.0,45.0,37,30.13,10.0,Variable,4.6,-,N/A,,Mostly Cloudy,0,2013-06-05 18:51:00
3:51 PM,72.0,44.1,37,30.11,10.0,Calm,Calm,-,N/A,,Mostly Cloudy,0,2013-06-05 19:51:00
4:51 PM,73.9,44.1,34,30.10,10.0,Calm,Calm,-,N/A,,Mostly Cloudy,0,2013-06-05 20:51:00
5:51 PM,73.0,43.0,34,30.10,10.0,Calm,Calm,-,N/A,,Overcast,0,2013-06-05 21:51:00
6:51 PM,72.0,46.9,41,30.10,10.0,SSE,4.6,-,N/A,,Mostly Cloudy,160,2013-06-05 22:51:00
7:51 PM,70.0,45.0,41,30.10,10.0,South,5.8,-,N/A,,Mostly Cloudy,180,2013-06-05 23:51:00
8:51 PM,66.9,45.0,45,30.11,10.0,Calm,Calm,-,N/A,,Scattered Clouds,0,2013-06-06 00:51:00
9:51 PM,63.0,46.0,54,30.12,10.0,Calm,Calm,-,N/A,,Scattered Clouds,0,2013-06-06 01:51:00
10:51 PM,60.1,46.9,62,30.13,10.0,Calm,Calm,-,N/A,,Partly Cloudy,0,2013-06-06 02:51:00
11:51 PM,57.0,50.0,77,30.14,10.0,North,6.9,-,N/A,,Scattered Clouds,350,2013-06-06 03:51:00